CW4498 Weather Reports


Display with metric or nautical units.
time (UTC)temp
F
wind
direction
speed
MPH
gust
MPH
rain 1hr
in
rain 24hr
in
rain mn
in
humidity
%
barometer
mb
20260505041533 45 283 0.0 4.0 0.00 0.01 0.01 71 1014.7
20260505040037 46 20 0.0 2.0 0.00 0.01 0.01 68 1014.6
20260505034529 46 310 2.0 7.0 0.00 0.01 0.01 66 1014.3
20260505033031 46 300 1.0 8.0 0.00 0.01 0.01 67 1014.2
20260505031525 47 319 2.0 8.0 0.00 0.01 0.01 65 1014.2
20260505030026 47 34 2.0 8.0 0.00 0.01 0.01 64 1013.6
20260505024521 47 351 1.0 4.0 0.00 0.01 0.01 63 1014.0
20260505023021 47 330 0.0 4.0 0.00 0.01 0.01 64 1013.7
20260505021520 47 24 0.0 3.0 0.01 0.01 0.01 65 1014.2
20260505020017 48 301 2.0 4.0 0.01 0.01 0.01 62 1014.2
20260505014517 48 325 1.0 6.0 0.01 0.01 0.01 62 1013.5
20260505013015 49 330 5.0 13.0 0.01 0.01 0.01 60 1013.5
20260505011512 51 327 2.0 11.0 0.00 0.00 0.00 54 1013.4
20260505010008 52 311 5.0 8.0 0.00 0.00 0.00 50 1012.8
20260505004508 52 271 2.0 9.0 0.00 0.00 0.00 54 1012.8
20260505003005 54 105 5.0 16.0 0.00 0.00 0.00 43 1012.3
20260505001503 57 23 1.0 3.0 0.00 0.00 0.00 37 1011.5
20260505000003 58 28 2.0 6.0 0.00 0.00 0.00 37 1011.4
20260504234503 59 49 1.0 5.0 0.00 0.00 0.00 34 1011.2
20260504233002 60 118 1.0 5.0 0.00 0.00 0.00 35 1010.9
20260504231501 60 28 0.0 5.0 0.00 0.00 0.00 36 1011.1
20260504230002 60 122 0.0 3.0 0.00 0.00 0.00 38 1011.1
20260504224602 60 295 0.0 3.0 0.00 0.00 0.00 32 1010.7
20260504223100 60 99 0.0 7.0 0.00 0.00 0.00 35 1010.6
20260504221600 61 130 2.0 5.0 0.00 0.00 0.00 31 1010.8
20260504220118 60 131 1.0 5.0 0.00 0.00 0.00 31 1010.9
20260504214559 60 15 8.0 14.0 0.00 0.00 0.00 31 1011.1
20260504213101 60 324 1.0 4.0 0.00 0.00 0.00 29 1011.0
20260504211557 61 349 5.0 10.0 0.00 0.00 0.00 27 1010.5
20260504210056 63 43 3.0 10.0 0.00 0.00 0.00 26 1010.4
20260504204556 66 315 1.0 4.0 0.00 0.00 0.00 23 1010.4
20260504203055 66 136 1.0 5.0 0.00 0.00 0.00 24 1010.5
20260504201554 64 321 2.0 7.0 0.00 0.00 0.00 26 1011.1
20260504200058 61 332 2.0 12.0 0.00 0.00 0.00 28 1011.2
20260504194552 62 317 10.0 18.0 0.00 0.00 0.00 25 1011.2
20260504193051 66 24 4.0 11.0 0.00 0.00 0.00 20 1011.2
20260504191556 68 273 1.0 5.0 0.00 0.00 0.00 19 1011.2
20260504190059 68 226 2.0 7.0 0.00 0.00 0.00 19 1011.2
20260504184559 66 140 2.0 14.0 0.00 0.00 0.00 20 1011.9
20260504183050 65 222 1.0 10.0 0.00 0.00 0.00 20 1011.9
20260504181548 64 300 3.0 8.0 0.00 0.00 0.00 19 1012.5
20260504180043 66 130 0.0 10.0 0.00 0.00 0.00 22 1012.4
20260504174541 66 137 1.0 8.0 0.00 0.00 0.00 22 1012.6
20260504173039 60 286 1.0 8.0 0.00 0.00 0.00 25 1013.2
20260504171536 60 309 7.0 18.0 0.00 0.00 0.00 23 1013.2
20260504100103 54 290 3.0 8.0 0.00 0.00 0.00 29 1014.5
20260504081554 55 281 4.0 12.0 0.00 0.00 0.00 28 1015.4
20260504044543 52 279 1.0 2.0 0.00 0.00 0.00 33 1017.5